Regional Weather Roundup
Issued by NWS Upton, NY

Current Version | Previous Version | Graphics & Text | Print | Product List | Glossary Off
Versions: 1 2 3 4 5 6 7 8 9 10 11 12 13 14 15 16 17 18 19 20 21 22 23 24 25 26 27 28 29 30 31 32 33 34 35 36 37 38 39 40 41 42 43 44 45 46 47 48 49 50

000
ASUS41 KOKX 300108
RWROKX

REGIONAL WEATHER ROUNDUP
NATIONAL WEATHER SERVICE NEW YORK NY
900 PM EDT SAT APR 29 2017

NOTE: "FAIR" INDICATES FEW OR NO CLOUDS BELOW 12,000 FEET WITH NO
SIGNIFICANT WEATHER AND/OR OBSTRUCTIONS TO VISIBILITY.

NYZ071-072-176-178-NJZ106-104-300200-
NEW YORK CITY METRO AREA

CITY           SKY/WX    TMP DP  RH WIND       PRES   REMARKS
Central Park   CLOUDY    77  57  50 VRB5      30.07R
Wall St Helipt CLOUDY    75  57  53 CALM      30.05R
Bronx Bot Gard   N/A     77  55  47 NW3       30.07R
LaGuardia APRT MOCLDY    74  55  51 NW14      30.03R
Kennedy INTL   CLOUDY    80  58  46 W20       30.05R
Breezy Point     N/A     73 N/A N/A W9G15       N/A
Newark/Liberty CLOUDY    78  58  49 NW13      30.04R
Teterboro      CLOUDY    76  58  53 NW12      30.03R
$$

NYZ177-179-078>081-300200-
LONG ISLAND NEW YORK

CITY           SKY/WX    TMP DP  RH WIND       PRES   REMARKS
Jones Beach      N/A     73 N/A N/A W14         N/A
Matinecock PT    N/A     70 N/A N/A NW8         N/A
Farmingdale    MOCLDY    78  57  48 NW7       30.03R
MacArthur/ISP  MOCLDY    75  59  57 NW10      30.02R
Shirley        NOT AVBL
Mt Sinai Harb    N/A     63 N/A N/A NW7         N/A
Westhampton    CLEAR     74  55  51 W7        30.03R
East Hampton     N/A     71  55  56 NW6       30.01R
Montauk          N/A     68  54  60 NW6       30.02
$$

NYZ052-065-067-300200-
HUDSON VALLEY

CITY           SKY/WX    TMP DP  RH WIND       PRES   REMARKS
White Plains   PTCLDY    74  55  51 NW16G26   30.05R
Larchmont Harb   N/A     75 N/A N/A W8          N/A
Croton O-T Hud   N/A     72 N/A N/A NW13G24     N/A
Newburgh       PTCLDY    68  57  68 NW17      30.09R
Montgomery     PTCLDY    68  53  58 NW9       30.08R
Poughkeepsie   CLOUDY    68  53  58 NW5       30.07R
Albany         CLOUDY    59  40  49 NW12G23   30.11R
$$

NJZ001-105-106-008-010-013-015-019>022-104-300200-
NEW JERSEY

CITY           SKY/WX    TMP DP  RH WIND       PRES   REMARKS
Newark/Liberty CLOUDY    78  58  49 NW13      30.04R
Teterboro      CLOUDY    76  58  53 NW12      30.03R
Caldwell       CLOUDY    76  57  51 NW7       30.07R
Somerville     MOCLDY    73  61  65 NW3       30.04R
Linden           N/A     76  58  52 NW7       30.05R
Perth Amboy      N/A     75 N/A N/A NW6         N/A
Sussex         MOCLDY    71  56  58 VRB7      30.12R
Andover          N/A     71  56  58 VRB5      30.10R
Trenton        PTCLDY    77  62  59 W3        30.04R
Millville      CLEAR     70  66  87 CALM      30.06R
Atlantic City  PTCLDY    75  59  57 CALM      30.06R
Wrightstown    CLEAR     72  62  71 SW5       30.02R
Toms River     PTCLDY    72  61  68 CALM      30.05R
Belmar         PTCLDY    76  61  59 W3        30.05R
$$

PAZ047>061-062-071-300200-
EASTERN PENNSYLVANIA

CITY           SKY/WX    TMP DP  RH WIND       PRES   REMARKS
Philadelphia   MOCLDY    79  61  53 W6        30.05R
Allentown      PTCLDY    73  60  63 N9        30.08R
Scranton       CLOUDY    63  54  72 N7        30.15R
$$

CTZ002-004>006-009-010-012-RIZ004-006-007-MAZ004-011-015-300200-
SOUTHERN NEW ENGLAND
 IN CT

CITY           SKY/WX    TMP DP  RH WIND       PRES   REMARKS
Bradley INTL   MOCLDY    67  48  50 NW18G26   30.05R
Hartford       PTCLDY    69  51  52 NW14G22   30.04R
Danbury        PTCLDY    69  55  60 NW8G21    30.07R
Wtrbury/Oxford PTCLDY    66  48  52 N12G20    30.07R
Bridgeport     PTCLDY    76  55  48 N12       30.02R
Meriden        CLEAR     72  54  53 NW7G18    30.04R
New Haven      PTCLDY    73  55  53 N12       30.03R
Chester          N/A     70  55  60 NW12      30.04R
Groton         PTCLDY    72  54  53 N10       30.00R
Wilimantic     CLEAR     71  51  49 NW8G23    30.03R

 IN RI

CITY           SKY/WX    TMP DP  RH WIND       PRES   REMARKS
Providence     PTCLDY    72  54  53 NW6G20    30.00R
Block Island   PTCLDY    63  53  70 W7        30.00R
Westerly       CLEAR     74  55  51 NW9G21    30.01R
 IN MA

CITY           SKY/WX    TMP DP  RH WIND       PRES   REMARKS
Boston         PTCLDY    71  48  43 W21G29    29.94R
Worcester      MOCLDY    63  44  50 W14G20    30.02R
Westfield      CLOUDY    65  42  43 NW16G24   30.05R
Provincetown   CLEAR     61  50  67 W13       29.94R
Nantucket      CLEAR     57  53  86 W17       29.96R
$$

ANZ330-335-338-340-345-350-353-355-300200-
COASTAL MARINE OBSERVATIONS


STATION/POSITION TIME  SKY/WX   TEMP    WIND        PRES    VSBY  WAVE
                                AIR SEA DIR/SP/G                  HT/PER
                 (UTC)          (F)     (DEG/KT/KT) (MB)    (MI)  (FT/S)
NY HARB ENTRANCE 2350            66 54  290/ 10/ 12 1016.2          3/ 6
20 S FIRE ISLAND 2350            57 50  240/  8/  8 1015.8          4/ 7
GREAT SOUTH BAY  0030            66 62  240/  6/ 10   N/A
23 SSW MONTAUK P 2350            54 48              1015.1          4/ 6
15 E BARNEGAT LI 0030               56                N/A           4/ 6
HUDSON CANYON    2350            54 50  230/ 10/ 12 1017.0          4/ 7
KINGS POINT      0030            73 56  330/ 13/ 16 1016.4
EXECUTION ROCKS  NOT AVBL
CENTRAL LI SOUND 0045            59     310/ 10/ 14   N/A           2/ 4
EASTERN LI SOUND NOT AVBL
ROBBINS REEF     0030            78     300/ 12/ 14 1017.1
$$


>>>>>>>>>>>>>>>>>>>>>>>>>>>> KEY <<<<<<<<<<<<<<<<<<<<<<<<<<<
>                                                          <
>     SKY/WX - Sky Condition/Present Weather               <
>     TMP    - Temperature in Fahrenheit                   <
>     DP     - Dew Point in Fahrenheit                     <
>     RH     - Relative Humidity in Percent                <
>     WIND   - Direction (from) and Speed in MPH           <
>     PRES   - Mean Sea Level Pressure (inches of Hg)      <
>     WCI    - Wind Chill Index                            <
>     VSB    - VISIBILITY IN MILES                         <
>     HX     - HEAT INDEX                                  <
>     TC     - TEMPERATURE IN CELSIUS                      <
>     VRB    - VARIABLE WIND DIRECTION                     <
>                                                          <
>>>>>>>>>>>>>>>>>>>>>>>>>>>> KEY <<<<<<<<<<<<<<<<<<<<<<<<<<<



USA.gov is the U.S. government's official web portal to all federal, state and local government web resources and services.